Regional Weather Roundup
Issued by NWS

Home | Current Version | Previous Version | Graphics & Text | Print | Product List | Glossary On
Versions: 1 2 3 4 5 6 7 8 9 10 11 12 13 14 15 16 17 18 19 20 21 22 23 24 25 26 27 28 29 30 31 32 33 34 35 36 37 38 39 40 41 42 43 44 45 46 47 48 49 50
239
ASUS44 KJAN 231903
RWRMS

MISSISSIPPI HOURLY WEATHER ROUNDUP
NATIONAL WEATHER SERVICE JACKSON MS
200 PM CDT WED APR 23 2014

NOTE: "FAIR: INDICATES FEW OR NO CLOUDS BELOW 12,000 FEET WITH NO
SIGNIFICANT WEATHER AND/OR OBSTRUCTIONS TO VISIBILITY.

MSZ001>002-007>008-010>013-018>021-025>028-034>036-232000-
NORTHWEST MISSISSIPPI

CITY           SKY/WX    TMP DP  RH WIND       PRES   REMARKS
CLARKSDALE       N/A     73  41  31 CALM      30.00F
CLEVELAND      FAIR      74  45  35 CALM      29.98F
GREENWOOD      SUNNY     78  43  28 N9        29.98F
GREENVILLE     SUNNY     77  47  34 VRB5      29.98F
GRENADA        FAIR      73  43  33 SE7       29.99F
OLIVE BRANCH   SUNNY     73  37  27 N7        30.00F
OXFORD         FAIR      73  36  25 E8        30.01F
TUNICA         CLEAR     75  41  29 NE8       30.00F
$$

MSZ003>006-009-014>017-022>024-029>033-037>039-232000-
NORTHEAST MISSISSIPPI

CITY           SKY/WX    TMP DP  RH WIND       PRES   REMARKS
BELMONT        FAIR      72  40  32 SW3       29.99S
COLUMBUS AFB   SUNNY     76  39  26 VRB3      29.98F
CORINTH        FAIR      73  34  23 E7        29.99F
GOLDN TRIANGLE SUNNY     77  46  33 N7        30.00F
STARKVILLE     FAIR      73  41  31 N5        29.98F
TUPELO         SUNNY     75  40  28 VRB5      29.99F
$$

MSZ040-058-232000-
CENTRAL MISSISSIPPI

CITY           SKY/WX    TMP DP  RH WIND       PRES   REMARKS
JACKSON INTL   SUNNY     79  50  36 N10       29.97F
JACKSON HAWKNS SUNNY     79  45  29 CALM      29.97F
MERIDIAN KEY   SUNNY     80  52  37 VRB5      29.96F
MERIDIAN NAS   SUNNY     78  49  35 VRB7      29.97F
RAYMOND        FAIR      77  73  88 CALM      29.97F
VICKSBURG      SUNNY     80  46  30 NE7       29.97F
$$

MSZ059>079-232000-
SOUTH MISSISSIPPI

CITY           SKY/WX    TMP DP  RH WIND       PRES   REMARKS
BROOKHAVEN     FAIR      79  48  34 CALM      29.98F
HATTIESBURG    MOSUNNY   82  55  39 CALM      29.95F
MCCOMB         SUNNY     81  47  30 VRB3      29.96F
NATCHEZ        SUNNY     79  46  31 NW8       29.97F
PINE BELT      PTSUNNY   81  55  41 N3        29.96F
$$

MSZ080>082-232000-
COASTAL MISSISSIPPI

CITY           SKY/WX    TMP DP  RH WIND       PRES   REMARKS
BAY ST LOUIS   MOSUNNY   82  54  36 S7        29.94F
BILOXI         SUNNY     76  67  71 SW13      29.94F
PASCAGOULA     MOSUNNY   78  65  63 S8        29.94F
GULFPORT       MOSUNNY   80  64  58 S12       29.94F
$$



USA.gov is the U.S. government's official web portal to all federal, state and local government web resources and services.